Location: Chantarel
(45.1638°N, 1.7873°E)
Time: 15:04:25
(UTC+00:00)

Cosmos 1844 Rocket - Pass Details

Date: 03 March 2021
Orbit: 826 x 843 km, 71.0° (Epoch: 15 April)

Event Time Altitude Azimuth Distance (km) Brightness Sun altitude
Rises 18:21:36 0° 339° (NNW) 3,375 6.1 -7.6°
Reaches altitude 10° 18:24:12 10° 347° (NNW) 2,437 5.3 -8.1°
Maximum altitude 18:29:25 39° 56° (NE) 1,221 3.2 -9.0°
Drops below altitude 10° 18:34:36 10° 124° (SE) 2,426 4.6 -9.9°
Enters shadow 18:35:42 - 129° (SE) 2,817 5.0 -10.1°
